EW2795 Weather Reports


Display with metric or nautical units.
time (UTC)temp
F
wind
direction
speed
MPH
gust
MPH
rain 1hr
in
rain 24hr
in
rain mn
in
humidity
%
barometer
mb
20260831124511 73 213 1.0 0.0 0.00 0.00 0.00 92 1016.4
20260831123054 73 213 0.0 0.0 0.00 0.00 0.00 92 1016.3
20260831121540 73 213 0.0 0.0 0.00 0.00 0.00 92 1016.3
20260831120037 73 214 0.0 0.0 0.00 0.00 0.00 92 1016.3
20260831114522 72 215 0.0 0.0 0.00 0.00 0.00 92 1016.3
20260831113013 72 194 0.0 0.0 0.00 0.00 0.00 92 1016.0
20260831111509 72 200 1.0 0.0 0.00 0.00 0.00 92 1015.7
20260831110004 72 200 0.0 0.0 0.00 0.00 0.00 92 1015.5
20260831104549 72 180 1.0 0.0 0.00 0.00 0.00 93 1015.4
20260831103044 72 178 1.0 0.0 0.00 0.00 0.00 94 1015.4
20260831101538 71 184 0.0 0.0 0.00 0.00 0.00 94 1015.4
20260831100044 71 129 0.0 0.0 0.00 0.00 0.00 94 1015.4
20260831094536 71 129 0.0 0.0 0.00 0.00 0.00 94 1015.4
20260831093042 71 129 0.0 0.0 0.00 0.00 0.00 94 1015.4
20260831091523 71 128 0.0 0.0 0.00 0.00 0.00 94 1015.5
20260831090014 70 128 0.0 0.0 0.00 0.00 0.00 94 1015.4
20260831084511 70 128 0.0 0.0 0.00 0.00 0.00 94 1015.2
20260831083103 71 128 0.0 0.0 0.00 0.00 0.00 94 1015.3
20260831081556 71 128 0.0 0.0 0.00 0.00 0.00 93 1015.3
20260831080109 71 128 0.0 0.0 0.00 0.00 0.00 93 1015.2
20260831074531 71 128 0.0 0.0 0.00 0.00 0.00 93 1015.3
20260831073022 71 128 0.0 0.0 0.00 0.00 0.00 92 1015.3
20260831071515 71 128 0.0 0.0 0.00 0.00 0.00 92 1015.5
20260831070010 72 128 0.0 0.0 0.00 0.00 0.00 91 1015.6
20260831064504 72 128 0.0 0.0 0.00 0.00 0.00 90 1015.4
20260831063106 72 128 0.0 0.0 0.00 0.00 0.00 90 1015.6
20260831061543 72 128 0.0 0.0 0.00 0.00 0.00 90 1015.8
20260831060032 72 128 0.0 0.0 0.00 0.00 0.00 90 1015.9
20260831054532 72 128 0.0 0.0 0.00 0.00 0.00 90 1015.9
20260831053032 72 128 0.0 0.0 0.00 0.00 0.00 90 1016.1
20260831051520 72 95 0.0 0.0 0.00 0.00 0.00 91 1016.1
20260831050010 72 95 0.0 0.0 0.00 0.00 0.00 91 1016.1
20260831044642 71 95 0.0 0.0 0.00 0.00 0.00 92 1016.0
20260831044502 71 95 0.0 0.0 0.00 0.00 0.00 92 1016.0
20260831043052 71 82 0.0 0.0 0.00 0.00 0.00 92 1016.0
20260831041544 71 82 0.0 0.0 0.00 0.00 0.00 92 1016.0
20260831040038 71 74 0.0 0.0 0.00 0.00 0.00 92 1016.1
20260831034533 71 74 0.0 0.0 0.00 0.00 0.00 92 1016.2
20260831033032 71 74 0.0 0.0 0.00 0.00 0.00 92 1016.3
20260831031531 71 74 0.0 0.0 0.00 0.00 0.00 91 1016.4
20260831030103 71 74 0.0 0.0 0.00 0.00 0.00 91 1016.5
20260831024537 71 74 0.0 0.0 0.00 0.00 0.00 92 1016.4
20260831023029 72 74 0.0 0.0 0.00 0.00 0.00 93 1016.4
20260831021519 72 74 0.0 0.0 0.00 0.00 0.00 93 1016.5
20260831020007 72 74 0.0 0.0 0.00 0.00 0.00 93 1016.7
20260831014553 72 74 0.0 0.0 0.00 0.00 0.00 92 1016.7
20260831013045 72 74 0.0 0.0 0.00 0.00 0.00 92 1016.5
20260831011550 72 74 0.0 0.0 0.00 0.00 0.00 91 1016.7
20260831010054 72 74 0.0 0.0 0.00 0.00 0.00 91 1016.5
20260831004535 73 74 0.0 0.0 0.00 0.00 0.00 90 1016.6
20260831003031 73 74 0.0 0.0 0.00 0.00 0.00 89 1016.5
20260831001523 74 74 0.0 0.0 0.00 0.00 0.00 88 1016.4
20260831000019 74 74 0.0 0.0 0.00 0.00 0.00 86 1016.3
20260830234606 75 74 0.0 0.0 0.00 0.00 0.00 85 1016.1
20260830233047 76 74 0.0 0.0 0.00 0.00 0.00 84 1015.7
20260830231539 77 74 0.0 0.0 0.00 0.00 0.00 82 1015.3
20260830230036 77 74 0.0 0.0 0.00 0.00 0.00 83 1015.2
20260830224529 77 74 0.0 0.0 0.00 0.00 0.00 82 1015.3
20260830223024 77 74 0.0 0.0 0.00 0.00 0.00 82 1015.3
20260830221513 77 74 0.0 0.0 0.00 0.00 0.00 82 1015.2
20260830220052 77 74 0.0 0.0 0.00 0.00 0.00 80 1015.1
20260830214545 78 74 0.0 0.0 0.00 0.00 0.00 80 1015.0
20260830213048 79 74 0.0 0.0 0.00 0.00 0.00 76 1014.9
20260830211526 80 74 1.0 0.0 0.00 0.00 0.00 76 1014.8
20260830210026 81 59 2.0 0.0 0.00 0.00 0.00 71 1015.1
20260830204533 82 44 1.0 0.0 0.00 0.00 0.00 69 1014.8
20260830203013 81 186 0.0 0.0 0.00 0.00 0.00 73 1015.1
20260830201557 79 194 0.0 0.0 0.00 0.00 0.00 77 1015.4
20260830200055 77 197 1.0 0.0 0.00 0.00 0.00 76 1015.6
20260830194540 77 201 2.0 0.0 0.00 0.00 0.00 75 1015.4
20260830193035 79 252 1.0 0.0 0.00 0.00 0.00 71 1016.8
20260830191531 80 261 2.0 0.0 0.00 0.00 0.00 71 1017.5
20260830190008 80 252 1.0 0.0 0.00 0.00 0.00 71 1017.7
20260830184506 80 259 1.0 0.0 0.00 0.00 0.00 68 1017.8
20260830183052 80 271 1.0 0.0 0.00 0.00 0.00 71 1018.0
20260830181544 80 261 2.0 0.0 0.00 0.00 0.00 68 1018.1
20260830180024 81 251 2.0 0.0 0.00 0.00 0.00 69 1018.2
20260830174517 80 332 3.0 0.0 0.00 0.00 0.00 71 1018.3
20260830173003 80 286 1.0 0.0 0.00 0.00 0.00 72 1018.3
20260830171552 80 269 2.0 0.0 0.00 0.00 0.00 71 1018.3
20260830170042 81 214 2.0 0.0 0.00 0.00 0.00 74 1018.4
20260830164525 77 237 1.0 0.0 0.00 0.00 0.00 82 1018.8
20260830163025 76 229 0.0 0.0 0.00 0.00 0.00 87 1019.1
20260830161514 76 229 0.0 0.0 0.00 0.00 0.00 86 1019.2
20260830160056 77 229 0.0 0.0 0.00 0.00 0.00 82 1019.1
20260830154550 78 229 0.0 0.0 0.00 0.00 0.00 80 1018.8
20260830153033 78 229 1.0 0.0 0.00 0.00 0.00 76 1018.5
20260830151524 78 235 2.0 0.0 0.00 0.00 0.00 78 1018.3
20260830150015 77 225 2.0 0.0 0.00 0.00 0.00 79 1018.0
20260830144600 76 196 3.0 0.0 0.00 0.00 0.00 79 1017.6
20260830144504 76 194 3.0 0.0 0.00 0.00 0.00 78 1017.6
20260830143050 75 175 2.0 0.0 0.00 0.00 0.00 80 1017.3
20260830141535 74 205 2.0 0.0 0.00 0.00 0.00 79 1017.4
20260830140023 74 192 2.0 0.0 0.00 0.00 0.00 80 1017.2
20260830134508 74 178 1.0 0.0 0.00 0.00 0.00 79 1017.2
20260830133058 73 187 3.0 0.0 0.00 0.00 0.00 79 1017.1
20260830133001 73 184 3.0 0.0 0.00 0.00 0.00 80 1017.1
20260830131543 72 195 3.0 0.0 0.00 0.00 0.00 82 1017.3
20260830130027 70 175 2.0 0.0 0.00 0.00 0.00 84 1017.5